This is the latest recevied weather packets stored in our database for station/object BRIVER. If no packets are shown the sender has not sent any weather packets the latest 1 day(s).
| Time | Temp. | Humidity | Pressure | Rain* | Wind** | Luminosity | Snow |
|---|---|---|---|---|---|---|---|
| 1778031990 | 12.22° C | 86% | 1013.5 hPa | 0 mm | 6.26 m/s, 200° | - | - |
| 1778031929 | 12.22° C | 86% | 1013.4 hPa | 0 mm | 6.26 m/s, 205° | - | - |
| 1778031629 | 12.22° C | 86% | 1013.4 hPa | 0 mm | 6.26 m/s, 196° | - | - |
| 1778031450 | 12.22° C | 86% | 1013.4 hPa | 0 mm | 6.26 m/s, 211° | - | - |
| 1778031329 | 12.22° C | 87% | 1013.4 hPa | 0 mm | 6.26 m/s, 213° | - | - |
| 1778031029 | 12.22° C | 86% | 1013.4 hPa | 0 mm | 6.71 m/s, 203° | - | - |
| 1778030910 | 12.78° C | 86% | 1013.4 hPa | 0 mm | 6.71 m/s, 229° | - | - |
| 1778030729 | 12.78° C | 86% | 1013.3 hPa | 0 mm | 6.71 m/s, 209° | - | - |
| 1778030429 | 12.78° C | 86% | 1013.3 hPa | 0 mm | 6.26 m/s, 207° | - | - |
| 1778030370 | 12.78° C | 86% | 1013.4 hPa | 0 mm | 6.26 m/s, 213° | - | - |
| 1778030129 | 12.78° C | 86% | 1013.5 hPa | 0 mm | 5.81 m/s, 214° | - | - |
| 1778029829 | 12.78° C | 86% | 1013.4 hPa | 0 mm | 5.81 m/s, 207° | - | - |
| 1778029529 | 12.78° C | 86% | 1013.4 hPa | 0 mm | 5.81 m/s, 203° | - | - |
| 1778029290 | 12.78° C | 85% | 1013.4 hPa | 0 mm | 5.36 m/s, 213° | - | - |
| 1778029229 | 12.78° C | 85% | 1013.3 hPa | 0 mm | 5.36 m/s, 223° | - | - |
| 1778028929 | 12.78° C | 86% | 1013.4 hPa | 0 mm | 5.81 m/s, 216° | - | - |
| 1778028629 | 12.78° C | 86% | 1013.3 hPa | 0 mm | 5.81 m/s, 222° | - | - |
| 1778028329 | 12.78° C | 86% | 1013.2 hPa | 0 mm | 5.81 m/s, 231° | - | - |
| 1778028210 | 12.78° C | 86% | 1013.2 hPa | 0 mm | 5.81 m/s, 225° | - | - |
| 1778028029 | 12.78° C | 85% | 1013.2 hPa | 0 mm | 6.26 m/s, 239° | - | - |
| 1778027729 | 12.78° C | 85% | 1013.2 hPa | 0 mm | 5.81 m/s, 209° | - | - |
| 1778027670 | 12.78° C | 85% | 1013.2 hPa | 0 mm | 5.81 m/s, 213° | - | - |
| 1778027429 | 12.78° C | 86% | 1013 hPa | 0 mm | 5.81 m/s, 205° | - | - |
| 1778027129 | 12.78° C | 85% | 1013.2 hPa | 0 mm | 5.81 m/s, 208° | - | - |
| 1778026829 | 12.78° C | 85% | 1013.1 hPa | 0 mm | 5.81 m/s, 223° | - | - |
* Rain latest hour (hover to see other rain measurements)
** Current wind speed in m/s (hover to see current wind gust speed)